This is the latest recevied weather packets stored in our database for station/object K5UBE. If no packets are shown the sender has not sent any weather packets the latest 10 day(s).
| Time | Temp. | Humidity | Pressure | Rain* | Wind** | Luminosity | Snow |
|---|---|---|---|---|---|---|---|
| 1777499775 | 18.89° C | 38% | 1017.5 hPa | 0 mm | - | - | - |
| 1777499471 | 18.89° C | 38% | 1017.9 hPa | 0 mm | - | - | - |
| 1777499170 | 18.33° C | 39% | 1018 hPa | 0 mm | - | - | - |
| 1777498866 | 18.89° C | 38% | 1017.8 hPa | 0 mm | - | - | - |
| 1777498563 | 19.44° C | 36% | 1018 hPa | 0 mm | - | - | - |
| 1777498258 | 19.44° C | 37% | 1018.2 hPa | 0 mm | - | - | - |
| 1777497957 | 18.33° C | 39% | 1018.4 hPa | 0 mm | - | - | - |
| 1777497653 | 18.89° C | 39% | 1018.8 hPa | 0 mm | - | - | - |
| 1777497349 | 18.89° C | 39% | 1018.8 hPa | 0 mm | - | - | - |
| 1777497045 | 17.78° C | 40% | 1018.7 hPa | 0 mm | - | - | - |
| 1777496743 | 18.33° C | 40% | 1019 hPa | 0 mm | - | - | - |
| 1777496439 | 17.78° C | 41% | 1018.9 hPa | 0 mm | - | - | - |
| 1777496136 | 17.78° C | 41% | 1019 hPa | 0 mm | - | - | - |
| 1777495832 | 17.78° C | 41% | 1018.9 hPa | 0 mm | - | - | - |
| 1777495528 | 17.78° C | 41% | 1019.2 hPa | 0 mm | - | - | - |
| 1777495224 | 17.78° C | 41% | 1019.2 hPa | 0 mm | - | - | - |
| 1777494921 | 17.78° C | 41% | 1019.3 hPa | 0 mm | - | - | - |
| 1777494618 | 18.89° C | 40% | 1019.6 hPa | 0 mm | - | - | - |
| 1777494316 | 18.33° C | 41% | 1019.4 hPa | 0 mm | - | - | - |
| 1777494012 | 17.78° C | 42% | 1019.6 hPa | 0 mm | - | - | - |
| 1777493710 | 17.78° C | 42% | 1019.6 hPa | 0 mm | - | - | - |
| 1777493408 | 17.22° C | 42% | 1019.4 hPa | 0 mm | - | - | - |
| 1777493103 | 18.33° C | 42% | 1019.6 hPa | 0 mm | - | - | - |
| 1777492800 | 17.78° C | 43% | 1019.3 hPa | 0 mm | - | - | - |
| 1777492496 | 17.78° C | 42% | 1019.6 hPa | 0 mm | - | - | - |
* Rain latest hour (hover to see other rain measurements)
** Current wind speed in m/s (hover to see current wind gust speed)